Precipitable_Water
0.51 0.56 0.63 0.60 0.58 0.65 0.56 0.68 0.90 0.83 0.88 1.10 1.13 1.05 0.98 1.09 0.95 0.75 1.48 1.47 1.47 1.44 1.50 1.40 1.26 1.14 1.06 0.92 0.88 0.88 0.95 0.98 0.97 1.00 0.98 1.09 1.10 1.20 1.18 1.14 1.15 1.14 1.14 1.16 1.18 1.20 1.21 1.21 1.18
0.65 0.63 0.67 0.69 0.56 0.47 0.58 0.85 0.85 1.00 1.12 1.23 1.18 1.11 0.98 0.96 1.21 1.30 1.27 1.45 1.39 1.38 1.39 1.29 1.19 1.13 1.04 0.94 0.87 0.88 0.93 0.97 0.94 0.96 1.00 1.01 1.03 1.13 1.07 1.06 1.05 1.08 1.14 1.15 1.21 1.22 1.21 1.22 1.22
0.66 0.66 0.63 0.66 0.59 0.49 0.63 0.99 1.07 1.22 1.29 1.23 1.13 1.24 1.09 1.05 1.27 1.26 1.44 1.42 1.36 1.27 1.30 1.24 1.18 1.11 1.01 0.94 0.89 0.89 0.91 0.96 0.95 0.92 0.97 0.95 0.96 1.04 1.01 1.01 1.00 1.06 1.11 1.14 1.20 1.21 1.21 1.20 1.21
0.56 0.61 0.74 0.60 0.56 0.73 0.82 0.99 1.15 1.07 1.17 1.32 1.21 1.01 1.25 1.40 1.39 1.36 1.41 1.35 1.25 1.19 1.22 1.24 1.21 1.13 1.02 0.94 0.89 0.89 0.91 0.92 0.95 0.92 0.92 0.92 0.90 0.90 0.94 0.94 0.97 1.01 1.06 1.10 1.15 1.18 1.19 1.21 1.20
0.58 0.60 0.58 0.57 0.60 0.70 0.88 1.10 1.15 1.02 1.11 1.18 1.22 1.04 1.10 1.37 1.53 1.41 1.36 1.35 1.22 1.18 1.22 1.21 1.16 1.10 1.03 0.98 0.93 0.91 0.93 0.96 0.93 0.91 0.93 0.89 0.88 0.88 0.90 0.89 0.90 0.93 0.97 1.02 1.09 1.14 1.18 1.21 1.17
0.44 0.56 0.52 0.48 0.57 0.71 0.90 1.15 1.08 1.11 1.08 1.09 1.09 1.07 1.17 1.44 1.36 1.27 1.33 1.24 1.25 1.18 1.27 1.23 1.15 1.03 0.98 0.95 0.91 0.92 0.97 1.02 1.01 0.94 0.92 0.91 0.87 0.85 0.85 0.84 0.83 0.85 0.90 0.94 1.01 1.08 1.16 1.16 1.17
0.51 0.50 0.48 0.55 0.57 0.66 0.76 0.97 0.93 0.95 0.97 0.95 1.15 0.98 1.21 1.35 1.39 1.40 1.35 1.31 1.25 1.29 1.34 1.37 1.39 1.28 1.10 1.04 0.95 0.94 0.96 1.01 1.02 1.01 0.93 0.91 0.88 0.86 0.81 0.83 0.84 0.83 0.84 0.87 0.90 1.00 1.09 1.09 1.13
0.53 0.50 0.48 0.51 0.52 0.57 0.80 0.87 0.91 0.89 0.82 1.05 1.10 1.03 1.05 1.28 1.40 1.35 1.31 1.25 1.16 1.19 1.27 1.33 1.40 1.44 1.45 1.37 1.19 1.01 0.97 0.98 1.02 1.03 1.01 0.93 0.90 0.90 0.85 0.82 0.83 0.83 0.82 0.82 0.83 0.87 0.98 1.00 1.03
0.54 0.39 0.36 0.40 0.43 0.50 0.69 0.76 0.85 0.95 0.87 0.97 1.02 1.06 1.16 1.31 1.32 1.29 1.27 1.21 1.21 1.23 1.26 1.34 1.38 1.42 1.47 1.45 1.46 1.43 1.30 1.11 1.03 1.00 1.03 1.02 0.93 0.90 0.91 0.88 0.86 0.82 0.79 0.78 0.78 0.79 0.81 0.84 0.96
0.44 0.37 0.36 0.41 0.45 0.47 0.57 0.67 0.71 0.70 0.74 0.76 0.83 0.92 1.03 1.07 1.18 1.16 1.14 1.09 1.10 1.22 1.26 1.32 1.46 1.51 1.51 1.56 1.55 1.57 1.57 1.49 1.33 1.17 1.09 1.13 1.15 1.06 0.98 0.99 0.98 0.94 0.88 0.78 0.72 0.72 0.73 0.74 0.85
0.40 0.33 0.37 0.43 0.49 0.53 0.52 0.54 0.61 0.62 0.57 0.68 0.75 0.78 0.87 0.92 0.93 0.94 0.95 1.03 1.00 1.03 1.02 1.14 1.21 1.29 1.48 1.57 1.58 1.62 1.66 1.65 1.61 1.46 1.34 1.24 1.21 1.27 1.24 1.12 1.02 1.01 0.96 0.90 0.82 0.74 0.67 0.78 0.91
0.36 0.41 0.38 0.39 0.42 0.44 0.44 0.50 0.49 0.51 0.54 0.62 0.69 0.76 0.79 0.81 0.81 0.83 0.83 0.81 0.80 0.83 0.87 0.95 1.04 1.13 1.19 1.31 1.45 1.59 1.61 1.61 1.66 1.60 1.58 1.44 1.31 1.25 1.20 1.16 1.18 1.08 1.04 0.93 0.88 0.92 0.86 0.83 0.89
0.39 0.39 0.40 0.42 0.43 0.43 0.44 0.42 0.44 0.46 0.53 0.58 0.60 0.60 0.61 0.64 0.71 0.74 0.74 0.73 0.71 0.68 0.69 0.72 0.77 0.83 0.97 1.12 1.28 1.39 1.48 1.50 1.55 1.57 1.60 1.68 1.52 1.37 1.37 1.33 1.24 1.21 1.16 1.08 1.00 0.91 0.94 0.99 1.02
0.38 0.39 0.39 0.41 0.42 0.42 0.39 0.40 0.41 0.44 0.48 0.47 0.47 0.47 0.49 0.50 0.52 0.52 0.52 0.51 0.50 0.50 0.50 0.52 0.55 0.64 0.73 0.85 0.91 0.97 1.11 1.29 1.38 1.45 1.53 1.58 1.70 1.62 1.53 1.48 1.42 1.30 1.27 1.21 1.16 1.15 1.13 1.09 1.08
0.39 0.33 0.35 0.36 0.36 0.36 0.36 0.29 0.30 0.37 0.36 0.31 0.30 0.30 0.32 0.33 0.33 0.31 0.32 0.29 0.31 0.31 0.32 0.31 0.34 0.41 0.47 0.56 0.63 0.69 0.78 0.83 0.91 1.05 1.19 1.36 1.50 1.60 1.68 1.71 1.68 1.56 1.46 1.35 1.21 1.18 1.20 1.18 1.19
0.27 0.25 0.21 0.27 0.25 0.23 0.19 0.16 0.25 0.30 0.27 0.24 0.25 0.26 0.26 0.29 0.31 0.32 0.34 0.33 0.34 0.33 0.32 0.32 0.29 0.27 0.30 0.39 0.47 0.52 0.55 0.62 0.65 0.71 0.73 0.83 1.09 1.28 1.43 1.51 1.64 1.78 1.76 1.58 1.33 1.22 1.15 1.13 1.11
0.15 0.11 0.12 0.14 0.17 0.16 0.15 0.15 0.23 0.27 0.25 0.24 0.24 0.24 0.25 0.26 0.29 0.32 0.34 0.35 0.36 0.36 0.35 0.34 0.34 0.30 0.27 0.32 0.39 0.43 0.45 0.46 0.48 0.51 0.56 0.61 0.70 0.83 0.99 1.20 1.32 1.51 1.71 1.75 1.69 1.46 1.27 1.18 1.13
0.07 0.08 0.09 0.09 0.12 0.15 0.14 0.16 0.22 0.26 0.26 0.24 0.24 0.27 0.26 0.26 0.29 0.34 0.35 0.36 0.38 0.38 0.37 0.37 0.35 0.34 0.31 0.29 0.32 0.35 0.37 0.40 0.44 0.46 0.46 0.46 0.51 0.57 0.64 0.72 0.86 1.10 1.33 1.49 1.66 1.65 1.61 1.36 1.23
0.11 0.09 0.09 0.13 0.17 0.16 0.17 0.17 0.21 0.26 0.28 0.27 0.27 0.28 0.29 0.29 0.34 0.36 0.37 0.38 0.39 0.40 0.39 0.37 0.34 0.36 0.34 0.29 0.27 0.28 0.30 0.33 0.37 0.41 0.43 0.43 0.45 0.46 0.48 0.54 0.63 0.76 0.85 1.04 1.29 1.48 1.49 1.39 1.48
0.11 0.10 0.11 0.16 0.19 0.18 0.19 0.18 0.23 0.27 0.28 0.30 0.28 0.28 0.28 0.28 0.27 0.32 0.36 0.37 0.38 0.40 0.41 0.39 0.39 0.40 0.39 0.35 0.33 0.33 0.33 0.34 0.36 0.38 0.38 0.40 0.41 0.42 0.44 0.46 0.45 0.55 0.67 0.80 0.94 1.05 1.15 1.29 1.41
0.11 0.10 0.10 0.12 0.18 0.21 0.21 0.19 0.22 0.26 0.29 0.31 0.31 0.29 0.30 0.29 0.26 0.29 0.33 0.33 0.35 0.36 0.37 0.36 0.37 0.38 0.39 0.38 0.35 0.34 0.34 0.34 0.32 0.35 0.35 0.37 0.40 0.40 0.42 0.44 0.43 0.45 0.55 0.62 0.75 0.85 1.01 1.01 1.15
0.10 0.13 0.12 0.14 0.14 0.12 0.22 0.11 0.19 0.23 0.24 0.28 0.29 0.28 0.29 0.30 0.30 0.29 0.31 0.30 0.31 0.34 0.37 0.37 0.37 0.35 0.37 0.37 0.32 0.30 0.29 0.27 0.33 0.36 0.37 0.36 0.39 0.39 0.41 0.43 0.40 0.42 0.50 0.53 0.59 0.66 0.75 0.86 0.88
0.11 0.14 0.13 0.13 0.13 0.13 0.17 0.15 0.15 0.23 0.21 0.25 0.28 0.28 0.30 0.31 0.30 0.28 0.29 0.30 0.33 0.35 0.36 0.37 0.38 0.37 0.37 0.36 0.33 0.30 0.28 0.30 0.32 0.32 0.32 0.34 0.36 0.38 0.39 0.42 0.40 0.39 0.44 0.45 0.49 0.51 0.57 0.68 0.79
0.15 0.13 0.13 0.15 0.14 0.11 0.13 0.16 0.14 0.18 0.21 0.25 0.28 0.30 0.30 0.30 0.29 0.28 0.30 0.30 0.31 0.35 0.35 0.36 0.35 0.35 0.35 0.35 0.33 0.30 0.26 0.25 0.24 0.25 0.26 0.28 0.31 0.33 0.36 0.40 0.39 0.38 0.41 0.39 0.39 0.44 0.45 0.44 0.56
0.17 0.14 0.10 0.10 0.10 0.09 0.17 0.16 0.16 0.23 0.26 0.28 0.29 0.30 0.30 0.31 0.28 0.29 0.29 0.28 0.28 0.30 0.32 0.34 0.35 0.34 0.34 0.34 0.33 0.32 0.29 0.27 0.24 0.25 0.25 0.24 0.25 0.28 0.31 0.34 0.35 0.35 0.38 0.37 0.35 0.34 0.36 0.39 0.44
0.15 0.18 0.10 0.07 0.09 0.13 0.19 0.14 0.18 0.25 0.30 0.30 0.30 0.30 0.31 0.30 0.30 0.30 0.29 0.29 0.29 0.31 0.33 0.34 0.35 0.35 0.36 0.35 0.33 0.33 0.32 0.30 0.28 0.25 0.25 0.25 0.24 0.25 0.30 0.31 0.33 0.33 0.34 0.34 0.34 0.32 0.31 0.31 0.39
0.16 0.13 0.20 0.15 0.18 0.13 0.15 0.19 0.23 0.24 0.24 0.26 0.27 0.29 0.29 0.29 0.30 0.29 0.30 0.29 0.30 0.31 0.31 0.34 0.35 0.36 0.37 0.36 0.35 0.34 0.35 0.33 0.31 0.28 0.27 0.27 0.27 0.25 0.28 0.31 0.29 0.29 0.31 0.32 0.31 0.30 0.28 0.27 0.31
0.17 0.21 0.13 0.13 0.08 0.09 0.12 0.14 0.14 0.19 0.22 0.25 0.26 0.27 0.27 0.29 0.29 0.29 0.28 0.29 0.30 0.32 0.33 0.34 0.36 0.36 0.37 0.37 0.36 0.36 0.36 0.35 0.35 0.32 0.25 0.25 0.26 0.25 0.26 0.27 0.28 0.27 0.29 0.31 0.30 0.28 0.27 0.24 0.24
0.14 0.14 0.17 0.15 0.15 0.10 0.10 0.12 0.21 0.21 0.23 0.24 0.26 0.26 0.27 0.27 0.28 0.28 0.29 0.30 0.31 0.33 0.33 0.34 0.36 0.36 0.36 0.37 0.37 0.37 0.37 0.37 0.36 0.33 0.29 0.26 0.26 0.25 0.25 0.27 0.26 0.25 0.28 0.29 0.28 0.26 0.26 0.24 0.22
0.16 0.14 0.16 0.10 0.11 0.17 0.16 0.13 0.23 0.23 0.24 0.25 0.25 0.27 0.27 0.28 0.28 0.28 0.29 0.30 0.30 0.31 0.32 0.33 0.35 0.36 0.37 0.38 0.39 0.38 0.39 0.39 0.38 0.36 0.34 0.30 0.27 0.26 0.26 0.27 0.26 0.26 0.26 0.30 0.29 0.26 0.26 0.25 0.23
Wind_Speed
9 11 13 16 14 13 10 9 12 10 9 9 9 11 13 10 6 9 9 10 10 10 10 11 11 11 11 12 12 12 12 12 11 11 10 10 10 10 11 12 12 12 12 13 13 14 14 14 15
9 13 15 17 17 14 10 9 11 9 9 11 11 9 11 13 12 13 10 10 10 10 10 10 10 10 11 11 11 11 11 11 11 11 11 10 10 10 10 11 11 11 11 12 12 13 13 13 14
13 15 16 16 15 13 12 12 11 11 11 12 10 9 7 6 8 9 10 10 10 10 10 10 10 10 10 10 11 11 11 11 11 10 10 9 9 9 9 10 9 9 10 11 11 11 11 11 10
16 15 17 17 16 12 12 14 12 10 14 8 13 10 11 9 7 10 10 10 9 9 9 9 9 9 9 9 10 10 10 10 9 9 9 8 8 8 8 8 8 8 9 9 10 9 9 9 9
17 17 16 16 15 11 8 13 10 9 10 11 9 11 11 9 10 11 9 8 8 8 8 8 7 7 8 8 8 9 9 10 9 8 8 7 7 6 6 6 6 7 7 7 7 8 8 8 8
15 16 15 14 13 11 10 12 11 5 6 11 12 13 11 8 10 9 8 7 7 6 6 6 6 6 7 7 7 7 8 8 8 7 6 6 5 5 4 4 5 5 5 5 5 5 5 6 7
21 17 13 13 11 9 6 7 6 5 9 10 9 9 9 8 8 7 7 6 6 5 5 6 6 6 6 6 6 6 6 6 7 6 5 4 4 3 2 3 3 3 3 3 3 3 3 3 4
14 12 12 8 9 7 6 7 6 5 5 4 4 7 7 6 6 6 5 5 5 5 6 6 6 5 6 6 6 6 5 5 5 5 4 3 1 1 1 2 3 3 3 3 3 3 2 1 1
10 9 11 9 5 8 6 8 7 7 9 9 8 9 8 7 6 5 5 4 4 5 5 6 7 6 6 7 7 6 6 6 5 4 4 3 2 2 2 3 4 4 5 5 5 5 5 4 4
9 9 8 8 9 9 8 7 5 6 7 8 8 8 6 6 4 4 3 3 5 6 7 7 7 8 8 8 8 8 7 7 7 7 6 6 5 5 5 6 6 7 7 7 8 8 7 7 6
8 11 13 12 13 12 11 10 5 7 7 6 5 6 4 3 3 3 4 4 6 7 8 9 9 9 9 9 9 9 9 9 8 8 9 9 9 9 9 9 9 9 10 10 10 10 10 9 8
17 12 12 12 10 9 9 10 11 9 7 7 6 3 2 3 3 4 5 6 7 8 10 11 11 11 12 12 11 11 11 11 11 11 11 11 12 12 13 13 13 13 12 12 13 13 12 12 12
16 14 12 13 12 10 11 9 8 8 7 6 4 3 4 4 4 5 6 7 9 10 11 11 12 12 13 13 13 13 13 13 13 13 14 14 14 14 15 15 16 17 16 16 15 15 16 16 16
14 16 13 11 10 8 8 4 3 3 4 3 3 3 4 4 5 6 7 8 9 11 12 13 14 14 14 13 14 14 14 15 16 16 16 16 16 17 17 18 18 19 20 21 20 19 19 19 19
19 18 10 5 6 10 9 5 4 4 3 3 3 3 4 5 5 6 7 8 9 10 11 13 13 14 14 14 15 15 16 16 16 18 19 19 20 20 20 21 20 20 20 22 23 24 23 22 22
11 6 7 7 4 1 2 3 3 3 3 2 3 4 4 5 6 7 7 8 9 10 12 13 13 14 14 14 15 15 16 17 17 18 19 19 20 21 23 24 24 25 24 23 23 24 26 25 24
5 6 6 4 2 2 1 4 4 2 2 2 3 4 5 6 7 8 9 10 11 12 13 15 16 16 15 15 15 16 16 17 18 19 20 20 21 21 22 24 26 28 28 29 26 26 26 25 26
6 6 3 3 1 1 1 1 3 3 1 2 3 5 6 7 8 9 11 12 13 14 15 17 18 18 17 17 17 17 17 17 17 18 19 20 22 22 23 24 25 26 28 29 29 31 29 26 26
7 5 4 0 2 1 2 2 4 4 3 4 6 7 8 9 11 11 13 14 15 17 18 19 19 19 18 18 19 19 19 19 19 19 19 20 21 22 23 25 26 26 27 28 29 31 30 32 29
5 6 2 1 2 2 2 4 6 7 7 7 7 8 9 11 12 13 14 15 16 17 18 19 19 19 19 19 19 19 19 20 20 20 21 21 22 23 23 24 25 27 28 29 29 31 33 34 33
2 3 2 2 1 3 2 7 8 9 9 9 9 9 10 11 12 14 15 15 17 18 19 19 19 19 19 19 18 19 19 20 21 21 22 22 23 23 24 24 25 26 27 28 30 30 31 33 35
1 2 2 1 3 5 6 9 10 10 10 11 10 10 10 11 13 14 14 16 17 18 19 18 18 18 17 17 17 18 18 19 20 21 21 22 23 23 24 24 25 25 26 27 29 30 32 33 33
3 3 3 4 5 6 8 9 11 9 12 12 12 11 10 11 12 13 15 16 17 18 17 16 16 17 17 17 17 17 17 17 18 19 20 21 22 23 24 24 25 25 26 27 29 30 32 33 35
3 3 5 6 7 10 11 9 12 10 14 12 11 11 11 11 12 14 16 17 17 16 16 15 16 16 16 16 17 17 17 18 18 19 19 20 21 22 23 24 26 26 26 27 28 29 30 33 34
4 4 7 8 9 10 9 9 15 14 13 13 12 11 12 12 12 15 16 16 15 15 15 15 15 16 16 16 17 17 17 18 19 19 20 21 22 23 24 25 26 26 27 28 29 29 29 31 33
6 7 6 8 9 11 12 12 14 15 13 11 11 12 12 13 14 15 14 14 15 15 15 15 15 15 15 15 16 16 17 17 19 19 19 20 21 22 24 25 26 27 28 28 29 30 30 31 32
8 8 8 7 11 12 13 14 15 12 10 9 11 12 14 14 15 15 14 14 15 15 14 14 15 14 15 15 16 17 18 19 20 20 21 21 22 23 23 24 25 26 27 28 29 29 30 31 31
8 7 8 10 9 13 14 15 15 12 11 12 13 14 15 16 16 16 16 16 16 16 15 15 15 15 16 17 18 18 20 21 22 23 24 24 24 25 26 26 27 27 27 28 28 29 29 30 30
9 10 9 9 10 11 13 15 14 14 13 13 15 15 16 17 18 18 19 18 18 18 18 18 17 17 18 19 20 21 22 24 25 26 26 27 27 27 28 28 29 30 30 29 29 29 30 30 30
11 11 11 10 14 13 13 17 17 15 13 13 15 17 19 20 20 21 21 21 21 21 21 21 21 22 22 23 23 24 25 26 28 29 29 29 30 30 31 31 31 32 32 32 32 32 32 31 31
Wind_Direction
189 181 171 162 167 159 157 150 157 155 152 129 125 109 100 91 76 108 107 94 89 87 83 77 72 66 61 57 57 56 54 53 56 58 61 68 81 92 94 98 99 97 94 95 96 94 93 91 88
169 163 155 159 162 159 157 158 137 139 144 140 120 118 93 87 88 102 103 96 91 88 82 76 71 66 60 56 55 54 53 54 57 60 63 71 83 94 98 103 102 98 96 96 98 97 95 93 90
150 149 148 159 166 165 159 141 131 140 143 136 137 112 117 103 83 106 104 100 93 86 80 76 69 63 58 55 53 52 52 53 58 61 64 73 83 94 103 107 105 101 100 100 100 99 95 92 85
146 137 138 142 131 138 154 149 145 95 110 110 124 106 114 93 105 114 110 102 93 84 78 72 65 59 54 51 50 49 49 50 56 60 64 71 82 96 106 111 110 108 106 105 102 100 97 89 79
132 140 139 139 126 138 132 161 150 130 101 89 113 123 119 104 99 112 108 100 91 82 70 62 55 50 47 45 46 45 45 46 50 58 64 69 81 100 113 114 117 117 115 112 109 104 99 87 73
144 146 142 137 140 134 110 133 137 107 108 87 92 117 116 104 106 108 103 97 88 77 59 49 42 38 36 35 35 37 39 41 44 50 58 66 79 99 118 125 130 132 129 126 122 115 104 89 75
126 134 134 137 144 134 145 140 121 102 90 81 103 114 124 101 105 107 104 94 81 64 45 31 24 21 20 18 19 20 23 28 33 38 44 55 73 98 123 145 154 155 157 156 152 145 127 102 84
135 137 142 132 143 131 142 132 100 101 74 121 89 105 109 101 103 101 97 96 67 41 25 16 11 6 -0 357 354 355 357 0 6 14 20 24 35 75 172 189 198 201 201 201 203 206 209 204 150
126 137 151 157 156 147 144 132 108 107 96 81 90 98 101 101 93 100 78 65 26 12 5 357 354 349 344 341 338 338 334 332 330 329 333 330 317 296 252 243 240 238 237 236 236 237 241 244 242
125 129 133 142 134 131 125 125 145 135 99 85 93 86 88 86 83 69 39 14 7 356 346 345 337 331 329 329 323 324 322 319 314 307 304 295 293 286 276 265 259 256 253 252 250 250 250 249 243
127 127 122 121 119 120 113 101 129 120 87 89 105 93 78 60 38 17 358 347 333 331 329 331 323 325 318 314 313 311 311 309 306 305 299 285 280 280 280 272 266 262 260 259 256 255 253 248 248
118 118 123 128 123 118 111 116 99 96 108 104 97 79 45 14 347 333 328 329 324 326 323 322 318 315 311 307 305 305 305 302 302 299 296 289 278 278 276 274 267 264 264 262 259 255 254 251 255
114 124 123 118 114 109 114 104 114 99 104 95 74 39 10 356 339 332 327 321 319 320 319 318 317 313 309 306 301 297 298 299 298 295 293 289 283 278 276 275 268 264 265 265 262 257 257 258 261
137 125 127 121 114 111 106 114 134 115 113 72 37 9 354 343 328 323 324 321 322 319 318 315 313 308 305 302 299 298 297 294 293 293 291 285 283 280 277 274 272 267 265 264 263 261 260 260 262
128 119 120 122 123 121 102 70 109 140 97 65 33 12 4 356 349 344 338 336 330 326 324 323 321 316 309 304 300 299 297 295 295 294 292 287 284 279 277 274 272 271 270 268 263 261 262 263 263
127 121 129 156 138 103 128 136 130 149 86 52 26 18 17 5 1 353 348 345 339 334 332 328 327 321 316 309 305 302 300 297 295 294 294 293 287 284 278 276 274 271 271 269 265 264 261 262 263
105 136 130 163 202 165 129 158 191 208 71 36 4 358 356 349 342 340 339 334 332 329 327 324 321 317 315 311 308 307 305 302 299 295 293 293 291 288 283 281 278 274 272 267 264 266 262 262 263
140 125 114 133 184 76 71 185 209 250 308 294 314 323 326 326 324 325 329 328 327 324 323 322 321 316 310 308 305 305 305 305 304 302 300 296 292 289 286 285 282 280 274 272 270 266 259 260 265
128 122 126 122 155 37 311 206 235 265 292 294 303 306 306 313 319 318 321 322 321 320 321 322 322 317 312 306 303 302 301 301 302 303 303 302 300 297 291 286 284 282 279 276 273 270 256 269 263
124 123 116 127 289 331 256 269 269 271 278 283 290 299 307 315 321 320 321 323 323 322 321 323 322 319 315 311 307 303 301 300 300 301 301 302 301 300 298 294 290 284 281 278 276 274 268 266 266
93 144 217 230 290 339 304 306 280 279 285 285 291 301 310 313 321 323 321 322 323 323 321 324 324 322 319 315 311 308 304 303 302 302 302 302 302 301 300 297 296 291 286 281 278 277 274 270 268
104 293 292 198 304 290 278 300 278 274 275 276 281 296 302 309 319 323 322 323 323 324 325 325 326 326 324 322 318 317 312 308 305 304 303 304 304 304 304 301 300 296 291 286 282 280 275 273 271
254 287 302 289 298 310 285 306 302 268 274 272 277 287 295 302 316 323 323 324 324 327 328 329 331 332 330 329 326 324 321 317 313 310 308 307 306 306 306 304 304 301 297 293 288 284 279 275 271
245 288 322 314 303 307 285 276 301 279 268 273 276 281 287 296 308 319 323 323 324 324 326 329 332 334 335 335 335 333 330 326 322 319 316 313 311 309 309 307 305 303 299 298 295 290 285 279 274
280 294 306 309 308 290 309 294 290 288 286 266 266 272 280 290 302 316 321 322 324 323 322 324 326 328 330 332 333 333 332 331 328 324 320 318 316 313 311 310 308 306 303 299 298 295 292 287 280
271 270 275 277 290 301 301 296 302 306 281 277 268 271 279 288 299 309 315 320 322 322 319 320 322 325 328 330 333 336 337 337 336 331 328 326 323 320 318 315 312 309 307 304 300 297 295 292 286
266 282 279 295 304 305 298 302 309 310 302 275 270 272 279 284 293 299 303 310 315 319 318 315 317 320 324 327 328 329 330 331 330 329 327 326 326 325 324 322 320 316 312 308 304 300 298 295 290
270 266 294 298 301 301 303 301 296 290 281 278 273 273 279 284 289 293 295 299 305 307 311 311 309 311 314 317 320 322 324 324 324 324 323 322 321 322 322 321 321 319 317 313 309 305 301 298 293
272 278 292 288 292 293 303 301 299 284 278 273 272 276 280 281 286 289 292 293 297 299 302 303 302 303 306 309 312 315 318 319 319 319 318 316 316 317 317 317 317 317 315 314 311 308 304 300 296
271 271 272 285 289 295 299 300 308 293 277 276 276 280 283 283 286 289 289 291 293 293 295 295 296 296 299 301 303 307 311 314 315 316 314 312 311 311 311 312 312 312 312 311 309 308 306 302 297